| time (UTC) | temp F | wind direction | speed MPH | gust MPH | rain 1hr in | rain 24hr in | rain mn in | humidity % | barometer mb |
| 20260905041535 | 60 | 0.0 | 0.0 | 0.00 | 0.71 | 0.41 | 67 | 1014.6 | |
| 20260905040015 | 60 | 0.0 | 0.0 | 0.00 | 0.71 | 0.41 | 64 | 1014.4 | |
| 20260905034515 | 60 | 0.0 | 0.0 | 0.00 | 0.72 | 0.41 | 63 | 1014.1 | |
| 20260905033035 | 61 | 0.0 | 0.0 | 0.00 | 0.73 | 0.41 | 63 | 1014.1 | |
| 20260905031515 | 61 | 0.0 | 0.0 | 0.00 | 0.78 | 0.41 | 63 | 1013.9 | |
| 20260905030015 | 62 | 0.0 | 0.0 | 0.00 | 0.78 | 0.41 | 64 | 1014.0 | |
| 20260905024517 | 63 | 0.0 | 0.0 | 0.00 | 0.78 | 0.41 | 63 | 1013.9 | |
| 20260905023017 | 63 | 0.0 | 0.0 | 0.00 | 0.78 | 0.41 | 62 | 1014.1 | |
| 20260905021517 | 64 | 0.0 | 0.0 | 0.00 | 0.78 | 0.41 | 60 | 1014.1 | |
| 20260905020017 | 65 | 0.0 | 0.0 | 0.00 | 0.78 | 0.41 | 59 | 1014.2 | |
| 20260905014517 | 65 | 0.0 | 1.0 | 0.00 | 0.78 | 0.41 | 59 | 1014.2 | |
| 20260905013017 | 65 | 0.0 | 1.0 | 0.00 | 0.78 | 0.41 | 57 | 1014.2 | |
| 20260905011517 | 66 | 0.0 | 2.0 | 0.00 | 0.78 | 0.41 | 56 | 1014.1 | |
| 20260905010017 | 66 | 0.0 | 3.0 | 0.00 | 0.78 | 0.41 | 56 | 1013.9 | |
| 20260905004517 | 66 | 0.0 | 4.0 | 0.00 | 0.78 | 0.41 | 54 | 1014.0 | |
| 20260905003017 | 66 | 0.0 | 2.0 | 0.00 | 0.78 | 0.41 | 53 | 1014.1 | |
| 20260905001517 | 66 | 135 | 1.0 | 4.0 | 0.00 | 0.78 | 0.41 | 54 | 1014.1 |
| 20260905000017 | 66 | 113 | 1.0 | 4.0 | 0.00 | 0.78 | 0.41 | 54 | 1014.2 |
| 20260904234537 | 67 | 113 | 1.0 | 4.0 | 0.00 | 0.78 | 0.41 | 53 | 1014.5 |
| 20260904233017 | 67 | 0.0 | 4.0 | 0.00 | 0.78 | 0.41 | 57 | 1014.7 | |
| 20260904231517 | 67 | 0.0 | 2.0 | 0.00 | 0.78 | 0.41 | 56 | 1014.7 | |
| 20260904230017 | 67 | 0.0 | 3.0 | 0.00 | 0.78 | 0.41 | 61 | 1014.7 | |
| 20260904224517 | 67 | 113 | 1.0 | 6.0 | 0.00 | 0.78 | 0.41 | 59 | 1014.9 |
| 20260904223017 | 66 | 113 | 1.0 | 4.0 | 0.00 | 0.78 | 0.41 | 62 | 1015.0 |
| 20260904221537 | 66 | 113 | 2.0 | 5.0 | 0.00 | 0.78 | 0.41 | 62 | 1015.1 |
| 20260904220017 | 67 | 0.0 | 2.0 | 0.00 | 0.78 | 0.41 | 62 | 1015.2 | |
| 20260904214517 | 67 | 113 | 1.0 | 7.0 | 0.00 | 0.78 | 0.41 | 62 | 1015.1 |
| 20260904213017 | 66 | 113 | 2.0 | 6.0 | 0.00 | 0.78 | 0.41 | 63 | 1014.8 |
| 20260904211517 | 67 | 135 | 2.0 | 6.0 | 0.00 | 0.78 | 0.41 | 63 | 1015.0 |
| 20260904210017 | 67 | 180 | 1.0 | 4.0 | 0.00 | 0.78 | 0.41 | 64 | 1014.8 |
| 20260904204517 | 65 | 135 | 2.0 | 5.0 | 0.00 | 0.78 | 0.41 | 66 | 1014.7 |
| 20260904203017 | 65 | 180 | 1.0 | 5.0 | 0.00 | 0.78 | 0.41 | 67 | 1014.7 |
| 20260904201517 | 65 | 113 | 2.0 | 5.0 | 0.00 | 0.78 | 0.41 | 70 | 1014.7 |
| 20260904200037 | 64 | 113 | 2.0 | 5.0 | 0.00 | 0.78 | 0.41 | 74 | 1014.8 |
| 20260904194517 | 63 | 90 | 1.0 | 5.0 | 0.00 | 0.78 | 0.41 | 79 | 1014.8 |
| 20260904193017 | 62 | 113 | 1.0 | 4.0 | 0.00 | 0.78 | 0.41 | 79 | 1014.8 |
| 20260904191537 | 61 | 113 | 1.0 | 4.0 | 0.00 | 0.78 | 0.41 | 82 | 1014.8 |
| 20260904190037 | 60 | 113 | 1.0 | 4.0 | 0.00 | 0.78 | 0.41 | 89 | 1014.7 |
| 20260904184516 | 59 | 90 | 1.0 | 4.0 | 0.00 | 0.78 | 0.41 | 94 | 1014.8 |
| 20260904183036 | 59 | 90 | 2.0 | 5.0 | 0.00 | 0.78 | 0.41 | 96 | 1014.7 |
| 20260904181517 | 58 | 90 | 1.0 | 3.0 | 0.00 | 0.78 | 0.41 | 96 | 1014.6 |
| 20260904180037 | 57 | 113 | 1.0 | 4.0 | 0.01 | 0.78 | 0.41 | 96 | 1014.5 |
| 20260904174516 | 57 | 113 | 1.0 | 3.0 | 0.01 | 0.78 | 0.41 | 96 | 1014.4 |
| 20260904173037 | 57 | 113 | 1.0 | 3.0 | 0.01 | 0.78 | 0.41 | 96 | 1014.3 |
| 20260904171516 | 57 | 0.0 | 3.0 | 0.01 | 0.78 | 0.41 | 97 | 1014.2 | |
| 20260904170017 | 56 | 0.0 | 2.0 | 0.00 | 0.77 | 0.40 | 96 | 1014.1 | |
| 20260904164516 | 56 | 113 | 1.0 | 3.0 | 0.00 | 0.77 | 0.40 | 96 | 1013.9 |
| 20260904163016 | 56 | 0.0 | 4.0 | 0.00 | 0.77 | 0.40 | 97 | 1013.8 | |
| 20260904161517 | 55 | 0.0 | 5.0 | 0.01 | 0.77 | 0.40 | 96 | 1013.6 | |
| 20260904160016 | 54 | 0.0 | 3.0 | 0.01 | 0.77 | 0.40 | 96 | 1013.4 | |
| 20260904154516 | 54 | 0.0 | 2.0 | 0.01 | 0.77 | 0.40 | 96 | 1013.2 | |
| 20260904153037 | 55 | 0.0 | 6.0 | 0.02 | 0.77 | 0.40 | 96 | 1013.2 | |
| 20260904151517 | 55 | 0.0 | 3.0 | 0.01 | 0.76 | 0.39 | 96 | 1013.2 | |
| 20260904150016 | 54 | 0.0 | 2.0 | 0.02 | 0.76 | 0.39 | 96 | 1013.1 | |
| 20260904144517 | 54 | 0.0 | 1.0 | 0.02 | 0.76 | 0.39 | 96 | 1012.9 | |
| 20260904143016 | 55 | 0.0 | 2.0 | 0.01 | 0.75 | 0.38 | 96 | 1012.9 | |
| 20260904141517 | 55 | 0.0 | 1.0 | 0.01 | 0.75 | 0.38 | 96 | 1012.7 | |
| 20260904140017 | 55 | 0.0 | 1.0 | 0.00 | 0.74 | 0.37 | 96 | 1012.6 | |
| 20260904134516 | 55 | 0.0 | 0.0 | 0.01 | 0.74 | 0.37 | 96 | 1012.4 | |
| 20260904133016 | 55 | 0.0 | 1.0 | 0.01 | 0.74 | 0.37 | 96 | 1012.4 | |
| 20260904131516 | 55 | 0.0 | 0.0 | 0.01 | 0.74 | 0.37 | 96 | 1012.3 | |
| 20260904130036 | 55 | 0.0 | 2.0 | 0.01 | 0.74 | 0.37 | 96 | 1012.2 | |
| 20260904124516 | 55 | 0.0 | 0.0 | 0.00 | 0.73 | 0.36 | 96 | 1011.9 | |
| 20260904123016 | 54 | 0.0 | 0.0 | 0.00 | 0.73 | 0.36 | 96 | 1011.9 | |
| 20260904121516 | 54 | 0.0 | 1.0 | 0.01 | 0.73 | 0.36 | 96 | 1011.8 | |
| 20260904120016 | 54 | 0.0 | 0.0 | 0.02 | 0.73 | 0.36 | 96 | 1011.8 | |
| 20260904114516 | 55 | 0.0 | 0.0 | 0.03 | 0.73 | 0.36 | 96 | 1011.6 | |
| 20260904113016 | 55 | 0.0 | 1.0 | 0.03 | 0.73 | 0.36 | 95 | 1011.7 | |
| 20260904111556 | 56 | 0.0 | 5.0 | 0.04 | 0.72 | 0.35 | 96 | 1011.9 | |
| 20260904110016 | 56 | 0.0 | 1.0 | 0.04 | 0.71 | 0.34 | 96 | 1011.6 | |
| 20260904104516 | 56 | 0.0 | 0.0 | 0.06 | 0.70 | 0.33 | 96 | 1011.6 | |
| 20260904103036 | 56 | 0.0 | 2.0 | 0.09 | 0.70 | 0.33 | 96 | 1011.6 | |
| 20260904101536 | 56 | 0.0 | 1.0 | 0.10 | 0.68 | 0.32 | 96 | 1011.6 | |
| 20260904100016 | 57 | 0.0 | 3.0 | 0.14 | 0.67 | 0.30 | 96 | 1011.4 | |
| 20260904094536 | 57 | 0.0 | 5.0 | 0.14 | 0.64 | 0.27 | 96 | 1011.6 | |
| 20260904093016 | 57 | 0.0 | 1.0 | 0.16 | 0.61 | 0.24 | 96 | 1011.6 | |
| 20260904091516 | 57 | 0.0 | 1.0 | 0.14 | 0.58 | 0.21 | 95 | 1011.7 | |
| 20260904090016 | 57 | 0.0 | 0.0 | 0.11 | 0.53 | 0.16 | 95 | 1011.7 | |
| 20260904084516 | 57 | 0.0 | 2.0 | 0.10 | 0.50 | 0.13 | 95 | 1011.8 | |
| 20260904083016 | 57 | 0.0 | 3.0 | 0.05 | 0.45 | 0.08 | 95 | 1011.9 | |
| 20260904081536 | 58 | 0.0 | 3.0 | 0.05 | 0.44 | 0.07 | 95 | 1012.0 | |
| 20260904080016 | 58 | 0.0 | 0.0 | 0.05 | 0.42 | 0.05 | 95 | 1012.0 | |
| 20260904074516 | 58 | 0.0 | 1.0 | 0.05 | 0.40 | 0.03 | 95 | 1012.1 | |
| 20260904073016 | 58 | 0.0 | 0.0 | 0.06 | 0.40 | 0.03 | 95 | 1012.1 | |
| 20260904071516 | 58 | 0.0 | 0.0 | 0.07 | 0.39 | 0.02 | 95 | 1012.1 | |
| 20260904070016 | 58 | 0.0 | 1.0 | 0.09 | 0.37 | 0.37 | 95 | 1012.1 | |
| 20260904064515 | 58 | 0.0 | 0.0 | 0.11 | 0.35 | 0.35 | 95 | 1012.1 | |
| 20260904063015 | 58 | 0.0 | 0.0 | 0.13 | 0.34 | 0.34 | 95 | 1012.1 | |
| 20260904061515 | 58 | 0.0 | 1.0 | 0.17 | 0.32 | 0.32 | 94 | 1012.0 | |
| 20260904060017 | 58 | 0.0 | 2.0 | 0.15 | 0.28 | 0.28 | 95 | 1012.0 | |
| 20260904054517 | 58 | 0.0 | 5.0 | 0.12 | 0.24 | 0.24 | 94 | 1012.0 | |
| 20260904053017 | 58 | 0.0 | 1.0 | 0.12 | 0.21 | 0.21 | 94 | 1011.9 | |
| 20260904051515 | 58 | 0.0 | 1.0 | 0.08 | 0.15 | 0.15 | 94 | 1012.0 | |
| 20260904050017 | 59 | 0.0 | 1.0 | 0.06 | 0.13 | 0.13 | 94 | 1012.1 | |
| 20260904044517 | 59 | 0.0 | 3.0 | 0.06 | 0.12 | 0.12 | 94 | 1012.1 | |
| 20260904043017 | 59 | 0.0 | 2.0 | 0.04 | 0.09 | 0.09 | 93 | 1011.9 |